CW4358 Weather Reports


time (UTC)temp
C
wind
direction
speed
KPH
gust
KPH
rain 1hr
cm
rain 24hr
cm
rain mn
cm
humidity
%
barometer
mb
20260505153339 22 34 1.6 19.3 0.00 0.00 0.00 62 1016.3
20260505153019 22 67 1.6 0.0 0.00 0.00 0.00 64 1016.1
20260505152838 22 301 1.6 6.4 0.00 0.00 0.00 66 1016.2
20260505152407 22 328 3.2 8.0 0.00 0.00 0.00 66 1016.2
20260505151846 22 79 3.2 8.0 0.00 0.00 0.00 65 1016.2
20260505151550 22 239 1.6 0.0 0.00 0.00 0.00 65 1016.1
20260505151348 22 331 1.6 6.4 0.00 0.00 0.00 66 1016.3
20260505150846 22 5 0.0 8.0 0.00 0.00 0.00 68 1016.4
20260505150339 22 88 3.2 4.8 0.00 0.00 0.00 68 1016.4
20260505140349 20 10 3.2 9.7 0.00 0.03 0.00 74 1016.2
20260505124834 16 342 3.2 9.7 0.00 0.03 0.00 83 1016.3
20260505124529 15 69 1.6 0.0 0.00 0.00 0.00 84 1016.1
20260505124333 15 30 1.6 9.7 0.00 0.03 0.00 85 1016.2
20260505123834 15 298 3.2 6.4 0.00 0.03 0.00 86 1016.2
20260505123402 15 325 0.0 4.8 0.00 0.03 0.00 86 1016.3
20260505123003 14 41 0.0 0.0 0.00 0.00 0.00 87 1016.1
20260505122841 14 42 1.6 4.8 0.00 0.03 0.00 87 1016.3
20260505122409 14 173 0.0 3.2 0.00 0.03 0.00 87 1016.3
20260505121849 13 169 0.0 4.8 0.00 0.03 0.00 88 1016.3
20260505121527 13 329 0.0 0.0 0.00 0.00 0.00 89 1016.1
20260505121347 13 246 1.6 4.8 0.00 0.03 0.00 89 1016.2
20260505120847 13 355 0.0 3.2 0.00 0.03 0.00 92 1016.2
20260505120341 13 40 0.0 3.2 0.00 0.03 0.00 90 1016.2
20260505120052 12 40 0.0 0.0 0.00 0.00 0.00 90 1016.0
20260505115910 13 40 1.6 3.2 0.00 0.03 0.00 90 1016.2
20260505115348 12 92 0.0 3.2 0.00 0.03 0.00 90 1016.2
20260505114849 12 349 1.6 3.2 0.00 0.03 0.00 91 1016.2
20260505114521 12 196 0.0 0.0 0.00 0.00 0.00 91 1016.1
20260505114350 12 360 0.0 3.2 0.00 0.03 0.00 91 1016.2
20260505113830 12 360 0.0 0.0 0.00 0.03 0.00 91 1016.2
20260505113331 11 360 0.0 0.0 0.00 0.03 0.00 91 1016.1
20260505113015 11 360 0.0 0.0 0.00 0.00 0.00 91 1015.9
20260505112831 11 360 0.0 0.0 0.00 0.03 0.00 91 1016.0
20260505112333 11 360 0.0 0.0 0.00 0.03 0.00 90 1016.0
20260505111832 11 360 0.0 0.0 0.00 0.03 0.00 90 1015.9
20260505111503 11 360 0.0 0.0 0.00 0.00 0.00 90 1015.7
20260505111331 11 360 0.0 0.0 0.00 0.03 0.00 90 1015.9
20260505110854 11 360 0.0 0.0 0.00 0.03 0.00 90 1015.7
20260505110345 11 360 0.0 0.0 0.00 0.03 0.00 90 1015.6
20260505101838 11 360 0.0 0.0 0.00 0.03 0.00 89 1015.2
20260505101534 11 360 0.0 0.0 0.00 0.00 0.00 89 1015.1
20260505101337 11 360 0.0 0.0 0.00 0.03 0.00 89 1015.2
20260505100837 11 360 0.0 0.0 0.00 0.03 0.00 89 1015.1
20260505100349 11 360 0.0 0.0 0.00 0.03 0.00 89 1015.1
20260505100053 11 360 0.0 0.0 0.00 0.00 0.00 89 1015.0
20260505095830 11 360 0.0 0.0 0.00 0.03 0.00 88 1015.1
20260505095358 11 360 0.0 0.0 0.00 0.03 0.00 88 1015.1
20260505094838 11 360 0.0 0.0 0.00 0.03 0.00 88 1015.0
20260505094525 11 360 0.0 0.0 0.00 0.00 0.00 88 1014.9
20260505094341 11 360 0.0 0.0 0.00 0.03 0.00 88 1015.0
20260505093841 11 360 0.0 0.0 0.00 0.03 0.00 87 1015.0
20260505093343 12 360 0.0 0.0 0.00 0.03 0.00 87 1014.9
20260505093013 11 360 0.0 0.0 0.00 0.00 0.00 87 1014.9
20260505092844 12 360 0.0 0.0 0.00 0.03 0.00 87 1014.9
20260505092339 12 360 0.0 0.0 0.00 0.03 0.00 87 1015.0
20260505091838 12 360 0.0 0.0 0.00 0.03 0.00 87 1014.9
20260505091503 11 360 0.0 0.0 0.00 0.00 0.00 87 1014.8
20260505091340 12 360 0.0 0.0 0.00 0.03 0.00 87 1014.9
20260505090839 12 360 0.0 0.0 0.00 0.03 0.00 87 1014.8
20260505090350 12 360 0.0 0.0 0.00 0.03 0.00 86 1014.9
20260505090025 12 360 0.0 0.0 0.00 0.00 0.00 86 1014.8
20260505085852 12 360 0.0 0.0 0.00 0.03 0.00 86 1014.9
20260505085351 12 360 0.0 0.0 0.00 0.03 0.00 86 1014.8
20260505084849 12 360 0.0 0.0 0.00 0.03 0.00 86 1014.7
20260505084516 12 360 0.0 0.0 0.00 0.00 0.00 85 1014.5
20260505084349 12 360 0.0 0.0 0.00 0.03 0.00 85 1014.7
20260505083830 12 360 0.0 0.0 0.00 0.03 0.00 85 1014.7
20260505083331 12 360 0.0 0.0 0.00 0.03 0.00 85 1014.7
20260505083117 12 360 0.0 0.0 0.00 0.00 0.00 85 1014.6
20260505083003 12 360 0.0 0.0 0.00 0.00 0.00 85 1014.6
20260505082831 12 360 0.0 0.0 0.00 0.03 0.00 85 1014.7
20260505082334 12 360 0.0 0.0 0.00 0.03 0.00 84 1014.7
20260505081831 12 360 0.0 0.0 0.00 0.03 0.00 84 1014.6
20260505081548 12 360 0.0 0.0 0.00 0.00 0.00 84 1014.5
20260505081335 13 360 0.0 0.0 0.00 0.03 0.00 84 1014.6
20260505080837 13 360 0.0 0.0 0.00 0.03 0.00 84 1014.5
20260505080330 13 360 0.0 0.0 0.00 0.03 0.00 84 1014.4
20260505080027 12 360 0.0 0.0 0.00 0.00 0.00 83 1014.3
20260505075830 13 360 0.0 0.0 0.00 0.03 0.00 83 1014.5
20260505075330 13 360 0.0 0.0 0.00 0.03 0.00 83 1014.4
20260505074831 13 360 0.0 0.0 0.00 0.03 0.00 83 1014.4
20260505074558 13 360 0.0 0.0 0.00 0.00 0.00 83 1014.3
20260505074332 13 360 0.0 0.0 0.00 0.03 0.00 82 1014.4
20260505073833 13 360 0.0 0.0 0.00 0.03 0.00 82 1014.3
20260505073335 13 360 0.0 0.0 0.00 0.03 0.00 82 1014.3
20260505073047 13 360 0.0 0.0 0.00 0.00 0.00 82 1014.3
20260505072837 13 360 0.0 1.6 0.00 0.03 0.00 82 1014.4
20260505072337 13 360 0.0 1.6 0.00 0.03 0.00 82 1014.4
20260505071838 13 360 0.0 0.0 0.00 0.03 0.00 82 1014.4
20260505071541 13 360 0.0 0.0 0.00 0.00 0.00 81 1014.1
20260505071336 13 360 0.0 0.0 0.00 0.03 0.00 81 1014.3
20260505070902 14 360 0.0 1.6 0.00 0.03 0.00 81 1014.2
20260505070333 14 360 0.0 1.6 0.00 0.03 0.00 81 1014.2
20260505070052 13 360 0.0 0.0 0.00 0.00 0.00 81 1014.1
20260505065831 14 360 0.0 0.0 0.00 0.03 0.00 80 1014.3
20260505065331 14 360 0.0 1.6 0.00 0.03 0.00 80 1014.2
20260505064919 14 360 0.0 1.6 0.00 0.03 0.00 80 1014.2
20260505064516 14 360 0.0 0.0 0.00 0.00 0.00 80 1014.1
20260505064359 15 360 0.0 0.0 0.00 0.03 0.00 80 1014.3
20260505063839 15 360 0.0 0.0 0.00 0.03 0.00 81 1014.3
20260505063339 15 360 0.0 1.6 0.00 0.03 0.00 81 1014.3
20260505063049 15 360 0.0 0.0 0.00 0.00 0.00 81 1014.2
20260505062841 15 360 0.0 1.6 0.00 0.03 0.00 81 1014.3
20260505062339 15 360 0.0 1.6 0.00 0.03 0.00 80 1014.2
20260505061840 15 360 0.0 1.6 0.00 0.03 0.00 81 1014.2
20260505061537 15 360 0.0 0.0 0.00 0.00 0.00 80 1014.2
20260505061340 15 360 0.0 0.0 0.00 0.03 0.00 79 1014.3
20260505060909 15 360 0.0 0.0 0.00 0.03 0.00 79 1014.3
20260505060400 15 360 0.0 1.6 0.00 0.03 0.00 79 1014.3
20260505060012 15 360 0.0 0.0 0.00 0.00 0.00 78 1014.1
20260505055840 15 360 0.0 1.6 0.00 0.03 0.00 78 1014.4
20260505055341 15 360 0.0 0.0 0.00 0.03 0.00 78 1014.2
20260505054840 16 360 0.0 0.0 0.00 0.03 0.00 78 1014.3
20260505054607 15 360 0.0 0.0 0.00 0.00 0.00 79 1014.2
20260505054343 16 360 0.0 1.6 0.00 0.03 0.00 79 1014.4
20260505053844 16 360 0.0 1.6 0.00 0.03 0.00 79 1014.4
20260505053347 16 360 0.0 0.0 0.00 0.03 0.00 79 1014.5
20260505053055 16 360 0.0 0.0 0.00 0.00 0.00 78 1014.3
20260505052843 16 360 0.0 1.6 0.00 0.03 0.00 77 1014.5
20260505052343 16 360 0.0 3.2 0.00 0.03 0.00 76 1014.5
20260505051844 16 360 0.0 3.2 0.00 0.03 0.00 76 1014.5
20260505051538 16 339 0.0 0.0 0.00 0.00 0.00 76 1014.4
20260505051344 16 338 0.0 6.4 0.00 0.03 0.00 76 1014.6
20260505050844 16 339 0.0 6.4 0.00 0.03 0.00 76 1014.6
20260505050358 16 360 1.6 3.2 0.00 0.03 0.00 76 1014.6
20260505041608 17 360 1.6 0.0 0.00 0.00 0.00 72 1014.3
20260505041344 17 360 1.6 4.8 0.00 0.03 0.00 72 1014.4
20260505040844 17 11 0.0 4.8 0.00 0.03 0.00 72 1014.4
20260505040357 17 25 0.0 4.8 0.00 0.03 0.00 71 1014.4
20260505040014 17 25 1.6 0.0 0.00 0.00 0.03 71 1014.3
20260505035850 17 79 1.6 6.4 0.00 0.03 0.03 72 1014.5
20260505035350 17 122 0.0 6.4 0.00 0.03 0.03 71 1014.4
20260505034850 17 24 1.6 9.7 0.00 0.03 0.03 74 1014.3
20260505034549 17 24 1.6 0.0 0.00 0.00 0.03 72 1014.3
20260505034330 17 122 3.2 9.7 0.00 0.03 0.03 73 1014.3
20260505033831 17 355 1.6 4.8 0.00 0.03 0.03 73 1014.4
20260505033334 17 19 1.6 4.8 0.00 0.03 0.03 73 1014.3
20260505033037 17 346 1.6 0.0 0.00 0.00 0.03 72 1014.3
20260505032832 18 355 1.6 4.8 0.00 0.03 0.03 71 1014.4
20260505032334 18 15 1.6 4.8 0.00 0.03 0.03 70 1014.4
20260505031834 18 293 1.6 3.2 0.00 0.03 0.03 71 1014.5
20260505031529 17 21 1.6 0.0 0.00 0.00 0.03 71 1014.3
20260505031335 18 15 1.6 8.0 0.00 0.03 0.03 71 1014.4
20260505030833 18 339 0.0 8.0 0.00 0.03 0.03 70 1014.5
20260505030344 18 355 0.0 8.0 0.00 0.03 0.03 70 1014.5
20260505030049 18 251 1.6 0.0 0.00 0.00 0.03 71 1014.3
20260505025846 18 17 1.6 8.0 0.00 0.03 0.03 71 1014.4
20260505025347 18 13 3.2 8.0 0.00 0.03 0.03 68 1014.4
20260505024848 18 9 1.6 4.8 0.00 0.03 0.03 70 1014.4
20260505024546 18 360 1.6 0.0 0.00 0.00 0.03 70 1014.3
20260505024350 18 340 1.6 6.4 0.00 0.03 0.03 70 1014.4
20260505023851 19 336 1.6 6.4 0.00 0.03 0.03 67 1014.4
20260505023417 19 342 1.6 4.8 0.00 0.03 0.03 68 1014.3
20260505023051 18 9 1.6 0.0 0.00 0.00 0.03 66 1014.2
20260505022857 19 288 1.6 4.8 0.00 0.03 0.03 67 1014.3
20260505022335 19 302 1.6 6.4 0.00 0.03 0.03 67 1014.1
20260505021837 19 5 1.6 6.4 0.00 0.03 0.03 67 1014.2
20260505021518 19 36 1.6 0.0 0.00 0.00 0.03 68 1014.1
20260505021338 19 336 0.0 8.0 0.00 0.03 0.03 68 1014.2
20260505020908 19 337 3.2 8.0 0.00 0.03 0.03 67 1014.1
20260505020341 19 10 3.2 6.4 0.00 0.03 0.03 67 1014.2
20260505020017 19 53 1.6 0.0 0.00 0.00 0.03 66 1014.1
20260505015840 19 40 1.6 4.8 0.00 0.03 0.03 67 1014.1
20260505015342 19 5 3.2 6.4 0.00 0.03 0.03 67 1014.1
20260505014844 19 355 1.6 6.4 0.00 0.03 0.03 66 1014.0
20260505014509 19 76 1.6 0.0 0.00 0.00 0.03 67 1014.0
20260505014408 19 82 3.2 6.4 0.00 0.03 0.03 66 1014.0
20260505013847 19 17 1.6 4.8 0.00 0.03 0.03 66 1013.9
20260505013347 19 346 0.0 6.4 0.00 0.03 0.03 65 1013.9
20260505013035 19 346 1.6 0.0 0.00 0.00 0.03 66 1013.7
20260505012850 19 351 0.0 6.4 0.00 0.03 0.03 65 1013.7
20260505012349 19 53 1.6 9.7 0.00 0.03 0.03 65 1013.5
20260505011849 18 55 3.2 9.7 0.00 0.03 0.03 65 1013.5
20260505011523 18 15 1.6 0.0 0.00 0.00 0.03 65 1013.4
20260505011330 18 286 0.0 4.8 0.00 0.03 0.03 65 1013.5
20260505010829 18 323 1.6 3.2 0.00 0.03 0.03 68 1013.4
20260505010341 19 323 0.0 3.2 0.00 0.03 0.03 66 1013.4
20260505010046 18 323 0.0 0.0 0.00 0.00 0.03 66 1013.2
20260505005839 19 323 0.0 0.0 0.00 0.03 0.03 63 1013.2
20260505005340 19 322 0.0 0.0 0.00 0.03 0.03 63 1013.1
20260505004908 19 323 0.0 0.0 0.00 0.03 0.03 63 1013.1
20260505004521 19 322 0.0 0.0 0.00 0.00 0.03 61 1012.9
20260505004331 19 322 0.0 0.0 0.00 0.03 0.03 60 1013.0
20260505003855 20 322 0.0 0.0 0.00 0.03 0.03 59 1013.0
20260505003355 20 322 0.0 0.0 0.00 0.03 0.03 59 1012.9
20260505003041 20 323 0.0 0.0 0.00 0.00 0.03 60 1012.7
20260505002835 20 323 0.0 0.0 0.00 0.03 0.03 59 1012.8
20260505002335 20 323 0.0 0.0 0.00 0.03 0.03 60 1012.8
20260505001905 20 323 0.0 0.0 0.00 0.03 0.03 58 1012.8
20260505001515 20 323 0.0 0.0 0.00 0.00 0.03 56 1012.7
20260505001345 21 323 0.0 0.0 0.00 0.03 0.03 56 1012.7
20260505000844 21 323 0.0 0.0 0.00 0.03 0.03 55 1012.8
20260505000338 21 323 0.0 0.0 0.00 0.03 0.03 54 1012.7
20260505000040 21 323 0.0 0.0 0.00 0.00 0.03 55 1012.6
20260504235836 21 322 0.0 0.0 0.00 0.03 0.03 54 1012.7
20260504235337 21 323 0.0 0.0 0.00 0.03 0.03 54 1012.7
20260504234837 22 323 0.0 1.6 0.00 0.03 0.03 54 1012.6
20260504234523 21 323 0.0 0.0 0.00 0.00 0.03 54 1012.5
20260504234334 22 322 0.0 3.2 0.00 0.03 0.03 55 1012.6
20260504233836 22 322 1.6 3.2 0.00 0.03 0.03 52 1012.4
20260504233338 22 242 0.0 1.6 0.00 0.03 0.03 52 1012.4
20260504233020 22 242 0.0 0.0 0.00 0.00 0.03 52 1012.3
20260504232838 22 241 0.0 3.2 0.00 0.03 0.03 52 1012.4
20260504232340 23 242 1.6 3.2 0.00 0.03 0.03 50 1012.3
20260504231840 23 360 0.0 1.6 0.00 0.03 0.03 50 1012.2
20260504231521 23 360 0.0 0.0 0.00 0.00 0.03 49 1012.1
20260504231338 23 360 0.0 1.6 0.00 0.03 0.03 51 1012.2
20260504230840 23 360 1.6 4.8 0.00 0.03 0.03 48 1012.3
20260504230333 23 11 1.6 4.8 0.00 0.03 0.03 47 1012.2
20260504230032 23 360 1.6 0.0 0.00 0.00 0.03 45 1012.1
20260504225832 23 313 0.0 4.8 0.00 0.03 0.03 49 1012.2
20260504225334 24 5 1.6 4.8 0.00 0.03 0.03 47 1012.2
20260504224832 24 348 1.6 6.4 0.00 0.03 0.03 42 1012.2
20260504224527 23 272 1.6 0.0 0.00 0.00 0.03 43 1012.1
20260504224335 24 345 0.0 6.4 0.00 0.03 0.03 44 1012.3
20260504223833 24 65 1.6 6.4 0.00 0.03 0.03 47 1012.2
20260504223333 24 65 1.6 6.4 0.00 0.03 0.03 45 1012.1
20260504223015 24 81 1.6 0.0 0.00 0.00 0.03 45 1012.1
20260504222900 25 348 3.2 6.4 0.00 0.03 0.03 42 1012.1
20260504222341 25 314 1.6 6.4 0.00 0.03 0.03 43 1012.2
20260504221839 25 342 3.2 6.4 0.00 0.03 0.03 45 1012.1
20260504221548 25 350 1.6 0.0 0.00 0.00 0.03 45 1012.2
20260504221407 25 351 3.2 6.4 0.00 0.03 0.03 40 1012.1
20260504220848 25 314 1.6 6.4 0.00 0.03 0.03 43 1012.2
20260504220340 25 338 3.2 6.4 0.00 0.03 0.03 38 1012.2
20260504220039 25 337 1.6 0.0 0.00 0.00 0.03 43 1012.1
20260504215839 25 71 3.2 6.4 0.00 0.03 0.03 42 1012.1
20260504215338 26 258 1.6 4.8 0.00 0.03 0.03 37 1012.1
20260504214902 26 59 1.6 9.7 0.00 0.03 0.03 41 1012.2
20260504214514 26 115 1.6 0.0 0.00 0.00 0.03 36 1012.2
20260504214409 26 244 4.8 9.7 0.00 0.03 0.03 36 1012.2
20260504213831 27 302 0.0 6.4 0.00 0.03 0.03 38 1012.2
20260504213335 27 25 3.2 6.4 0.00 0.03 0.03 41 1012.3
20260504213037 26 5 1.6 0.0 0.00 0.00 0.03 33 1012.3
20260504212837 27 21 3.2 6.4 0.00 0.03 0.03 34 1012.3
20260504212337 27 66 1.6 6.4 0.00 0.03 0.03 33 1012.2
20260504211836 27 295 1.6 6.4 0.00 0.03 0.03 35 1012.3
20260504211532 27 317 1.6 0.0 0.00 0.00 0.03 34 1012.2
20260504211405 27 9 1.6 6.4 0.00 0.03 0.03 33 1012.3
20260504210847 27 342 1.6 4.8 0.00 0.03 0.03 42 1012.3
20260504210340 27 55 3.2 4.8 0.00 0.03 0.03 33 1012.3
20260504210050 27 65 1.6 0.0 0.00 0.00 0.03 36 1012.2
20260504205840 27 324 1.6 4.8 0.00 0.03 0.03 35 1012.3
20260504205339 27 273 3.2 6.4 0.00 0.03 0.03 33 1012.4
20260504204836 27 207 3.2 6.4 0.00 0.03 0.03 32 1012.4
20260504204523 27 181 3.2 0.0 0.00 0.00 0.03 35 1012.3
20260504204335 27 15 3.2 6.4 0.00 0.03 0.03 32 1012.4
20260504203835 27 28 3.2 12.9 0.00 0.03 0.03 33 1012.4
20260504203335 27 65 6.4 12.9 0.00 0.03 0.03 34 1012.5
20260504203019 26 313 3.2 0.0 0.00 0.00 0.03 31 1012.5
20260504202838 27 242 3.2 9.7 0.00 0.03 0.03 34 1012.6
20260504202338 27 273 4.8 8.0 0.00 0.03 0.03 35 1012.6
20260504201839 27 62 3.2 6.4 0.00 0.03 0.03 36 1012.7
20260504201559 26 344 3.2 0.0 0.00 0.00 0.03 31 1012.7
20260504201338 27 173 3.2 4.8 0.00 0.03 0.03 34 1012.7
20260504200838 27 332 1.6 4.8 0.00 0.03 0.03 37 1012.7
20260504200349 26 240 1.6 8.0 0.00 0.03 0.03 31 1012.8
20260504200025 26 264 3.2 0.0 0.00 0.00 0.03 34 1012.7
20260504195851 26 244 4.8 8.0 0.00 0.03 0.03 32 1012.7
20260504195349 27 51 3.2 9.7 0.00 0.03 0.03 39 1012.7
20260504194831 26 41 4.8 9.7 0.00 0.03 0.03 32 1012.8
20260504194522 26 244 1.6 0.0 0.00 0.00 0.03 35 1012.8
20260504194415 27 41 1.6 4.8 0.00 0.03 0.03 33 1012.8
20260504193856 26 360 0.0 9.7 0.00 0.03 0.03 40 1012.9
20260504193333 26 110 3.2 9.7 0.00 0.03 0.03 33 1012.9
20260504193019 26 326 3.2 0.0 0.00 0.00 0.03 38 1012.9
20260504192835 27 304 1.6 6.4 0.00 0.03 0.03 37 1013.0
20260504192335 26 13 3.2 6.4 0.00 0.03 0.03 43 1013.1
20260504191836 26 230 1.6 4.8 0.00 0.03 0.03 35 1013.2
20260504191505 26 360 3.2 0.0 0.00 0.00 0.03 34 1013.2
20260504191337 26 266 1.6 6.4 0.00 0.03 0.03 42 1013.2
20260504190838 26 227 3.2 8.0 0.00 0.03 0.03 37 1013.3
20260504190332 26 350 1.6 8.0 0.00 0.03 0.03 40 1013.3
20260504190043 26 350 3.2 0.0 0.00 0.00 0.03 37 1013.5
20260504185900 26 132 1.6 8.0 0.00 0.03 0.03 35 1013.6
20260504185335 26 244 1.6 8.0 0.00 0.03 0.03 38 1013.5
20260504184836 26 229 3.2 9.7 0.00 0.03 0.03 36 1013.4
20260504184600 25 278 3.2 0.0 0.00 0.00 0.03 38 1013.5
20260504184503 25 22 3.2 0.0 0.00 0.00 0.03 35 1013.4
20260504184336 25 336 3.2 9.7 0.00 0.03 0.03 36 1013.5
20260504183838 25 171 3.2 8.0 0.00 0.03 0.03 39 1013.6
20260504183336 25 14 3.2 8.0 0.00 0.03 0.03 40 1013.6
20260504183047 25 13 3.2 0.0 0.00 0.00 0.03 41 1013.7
20260504182837 25 96 1.6 4.8 0.00 0.03 0.03 42 1013.7
20260504182335 25 360 1.6 9.7 0.00 0.03 0.03 42 1013.7
20260504181905 25 262 3.2 9.7 0.00 0.03 0.03 42 1013.8
20260504181518 25 128 1.6 0.0 0.00 0.00 0.03 41 1013.7
20260504181411 25 337 0.0 8.0 0.00 0.03 0.03 47 1013.8
20260504180830 25 232 1.6 8.0 0.00 0.03 0.03 43 1013.8
20260504180340 25 103 3.2 8.0 0.00 0.03 0.03 41 1013.8
20260504180007 25 338 3.2 0.0 0.00 0.00 0.03 42 1013.7
20260504175841 25 327 6.4 9.7 0.00 0.03 0.03 42 1013.8
20260504175407 25 274 3.2 9.7 0.00 0.03 0.03 47 1013.9
20260504174848 24 30 3.2 11.3 0.00 0.03 0.03 41 1014.1
20260504174531 24 306 3.2 0.0 0.00 0.00 0.03 39 1014.2
20260504174348 25 156 3.2 11.3 0.00 0.03 0.03 40 1014.2
20260504173847 25 311 3.2 6.4 0.00 0.03 0.03 42 1014.3
20260504173348 24 96 1.6 4.8 0.00 0.03 0.03 47 1014.3
20260504173022 24 336 3.2 0.0 0.00 0.00 0.03 41 1014.3
20260504172849 24 236 1.6 9.7 0.00 0.03 0.03 43 1014.4
20260504172331 24 238 1.6 9.7 0.00 0.03 0.03 42 1014.5
20260504171831 24 63 3.2 9.7 0.00 0.03 0.03 46 1014.6
20260504171509 24 334 3.2 0.0 0.00 0.00 0.03 48 1014.6
20260504171331 24 323 1.6 9.7 0.00 0.03 0.03 46 1014.6
20260504170833 24 48 0.0 8.0 0.00 0.03 0.03 47 1014.6
20260504170402 24 236 4.8 8.0 0.00 0.03 0.03 44 1014.7
20260504160336 22 26 1.6 8.0 0.00 0.03 0.03 54 1015.4